Regional Weather Roundup
Issued by NWS

Home | Current Version | Previous Version | Graphics & Text | Print | Product List | Glossary On
Versions: 1 2 3 4 5 6 7 8 9 10 11 12 13 14 15 16 17 18 19 20 21 22 23 24 25 26 27 28 29 30 31 32 33 34 35 36 37 38 39 40 41 42 43 44 45 46 47 48 49 50
000
ASUS43 KLSX 231910
RWRMO

WEATHER SUMMARY FOR MISSOURI
NATIONAL WEATHER SERVICE SPRINGFIELD MO
200 PM CDT WED MAY 23 2018

NOTE: "FAIR" INDICATES FEW OR NO CLOUDS BELOW 12,000 FEET WITH NO
       SIGNIFICANT WEATHER AND/OR OBSTRUCTIONS TO VISIBILITY.
       CURRENT SKY AND/OR WEATHER CONDITIONS ARE NOT AVAILABLE FOR
       CHILLICOTHE AND FARMINGTON.

MOZ001>031-035>038-043-044-053-054-232000-
...NORTHERN AND WESTERN MISSOURI...

CITY           SKY/WX    TMP DP  RH WIND       PRES   REMARKS
KANSAS CTY INT MOSUNNY   87  65  47 S12       30.08F
KANSAS C DTWN  SUNNY     89  64  43 S12       30.06F HX  90
LEE`S SUMMIT   MOSUNNY   87  67  51 S8        30.09F HX  90
ST JOSEPH      MOSUNNY   89  64  43 S14G22    30.06F HX  90
CHILLICOTHE      N/A     88  66  48 SE5       30.09F HX  90
KIRKSVILLE     MOSUNNY   85  67  54 SE9       30.13F

$$
MOZ066>068-077>081-088>096-101>105-232000-
...SOUTHWEST MISSOURI...

CITY           SKY/WX    TMP DP  RH WIND       PRES   REMARKS
SPRINGFIELD    PTSUNNY   83  67  58 VRB6      30.09F
JOPLIN         PTSUNNY   83  68  60 NE3       30.08F
BRANSON        PTSUNNY   84  64  51 SE5       30.10F

$$
MOZ032>034-039>042-045>050-055>058-069>072-232000-
...CENTRAL MISSOURI...

CITY           SKY/WX    TMP DP  RH WIND       PRES   REMARKS
COLUMBIA       MOSUNNY   85  68  56 E5        30.11F
JEFFERSON CITY CLOUDY    85  67  54 NE6       30.09F
ROLLA          MOSUNNY   85  67  54 E8        30.13F
SEDALIA        MOSUNNY   87  71  58 E7        30.11F HX  93
WHITEMAN AFB   PTSUNNY   85  68  57 SE6       30.05F
WARRENSBURG    SUNNY     84  64  51 E6        30.09S
OSAGE BEACH    MOSUNNY   86  70  58 SE5       30.10F HX  90

$$
MOZ051-052-059>065-232000-
...EAST CENTRAL MISSOURI...

CITY           SKY/WX    TMP DP  RH WIND       PRES   REMARKS
ST LOUIS INTL  MOSUNNY   84  65  52 E9        30.14F
SPIRIT OF STL  SUNNY     86  66  51 E6        30.11F
ST CHARLES     SUNNY     84  68  58 E8        30.12F

$$
MOZ072>076-082>087-097>100-106>115-232000-
...SOUTH CENTRAL AND SOUTHEAST MISSOURI...

CITY           SKY/WX    TMP DP  RH WIND       PRES   REMARKS
CAPE GIRARDEAU FAIR      86  64  47 NE12      30.10F
FARMINGTON     MOSUNNY   83  67  58 NE3       30.14F
POPLAR BLUFF   FAIR      86  69  56 NE9       30.08F HX  90
WEST PLAINS    CLOUDY    84  68  58 SE10      30.12F

$$




USA.gov is the U.S. government's official web portal to all federal, state and local government web resources and services.